Meteo Giornale » Osservazioni meteo Corea del Sud » Seoul-Kimp'O
ore: 04:00 - Osservazioni Meteo Seoul-Kimp'O
Lat. 37° 33' N Lon. 126° 48' E Alt. 18 metri s.l.m.
22 °C
Molto Nuvoloso
Temp. 24 Ore
22 °C
25 °C
Nord
1.8 Km/h
Dew point 22 °C
Umidità 100 %
Visibilità 10 Km
Il sole sorge alle ore 06:03
Il sole tramonta alle ore 19:01
| Data e Ora | Cielo e Fenomeni | T °C | DP °C | Um. % | Pres. hPa | Vis. km | Vento km/h | |
|---|---|---|---|---|---|---|---|---|
| Oggi h: 04:00 | Molto Nuvoloso | 22 | 22 | 100 | 1012 | 10 | N 1.8 | |
| Oggi h: 03:00 | Molto Nuvoloso | 22 | 22 | 100 | 1012 | 10 | N 3.7 | |
| Oggi h: 02:00 | Coperto | 22 | 22 | 100 | 1012 | 10 | N 3.7 | |
| Oggi h: 01:00 | Coperto | 22 | 22 | 100 | 1012 | 10 | N 1.8 | |
| Oggi h: 00:00 | Coperto | 22 | 22 | 100 | 1012 | 10 | N 5.5 | |
| Ieri h: 23:00 | Coperto | 22 | 22 | 100 | 1012 | 10 | NO 7.4 | |
| Ieri h: 22:00 | Coperto | 22 | 22 | 100 | 1012 | 10 | N 3.7 | |
| Ieri h: 21:00 | Coperto | 22 | 22 | 100 | 1012 | 10 | N 5.5 | |
| Ieri h: 20:00 | Coperto | 22 | 22 | 100 | 1011 | 7 | N 7.4 | |
| Ieri h: 19:00 | Coperto | 22 | 22 | 100 | 1011 | 10 | N 5.5 | |
| Ieri h: 18:00 | Coperto | 23 | 23 | 100 | 1010 | 10 | NE 7.4 | |
| Ieri h: 17:00 | Pioggia | 23 | 23 | 100 | 1010 | 10 | E/SE 18.5 | |
| Ieri h: 16:00 | Pioggia | 24 | 24 | 100 | 1010 | 10 | E/SE 13 | |
| Ieri h: 15:17 | Pioggia | 24 | 23 | 94 | 1010 | 7 | E/SE 18.5 | |
| Ieri h: 15:09 | Pioggia | 25 | 25 | 100 | 1010 | 7 | E/SE 13 | |
| Ieri h: 15:00 | Pioggia | 25 | 25 | 100 | 1010 | 10 | E/SE 9.3 | |
| Ieri h: 14:00 | Pioggia | 25 | 25 | 100 | 1011 | 10 | N 5.5 | |
| Ieri h: 13:00 | Coperto | 25 | 25 | 100 | 1010 | 10 | E/NE 7.4 | |
| Ieri h: 12:00 | Coperto | 25 | 25 | 100 | 1011 | 10 | E/NE 14.8 | |
| Ieri h: 11:20 | Pioggia | 23 | 23 | 100 | 1012 | 7 | NO 11.1 | |
| Ieri h: 11:00 | Pioggia | 23 | 23 | 100 | 1011 | 8 | N/NO 9.3 | |
| Ieri h: 10:00 | Pioggia | 23 | 23 | 100 | 1012 | 8 | N 5.5 | |
| Ieri h: 09:12 | Pioggia | 22 | 22 | 100 | 1011 | 6 | N 9.3 | |
| Ieri h: 09:00 | Pioggia | 22 | 22 | 100 | 1011 | 6 | N 11.1 | |
| Ieri h: 08:00 | Pioggia | 22 | 22 | 100 | 1012 | 6 | O/NO 9.3 | |
| Ieri h: 07:32 | Pioggia | 24 | 24 | 100 | 1011 | 4 | N 1.8 | |
| Ieri h: 07:08 | Pioggia | 24 | 24 | 100 | 1010 | 3 | N 5.5 | |
| Ieri h: 07:00 | Pioggia | 24 | 24 | 100 | 1011 | 4 | N 1.8 | |
| Ieri h: 06:37 | Pioggia | 24 | 24 | 100 | 1011 | 4 | N 3.7 | |
| Ieri h: 06:00 | Pioggia | 24 | 24 | 100 | 1011 | 5 | SE 7.4 | |
| Ieri h: 05:00 | Pioggia | 24 | 24 | 100 | 1010 | 10 | E 7.4 | |



